Location: College Park
(38.9810°N, 76.9370°W)
Time: 22:00:29
(UTC-05:00)

Tiangong 1 - Pass Details

Date: 10 February 2018
Orbit: 247 x 268 km, 42.8° (Epoch: 22 February)

Event Time Altitude Azimuth Distance (km) Brightness Sun altitude
Exits shadow 06:16:54 18° 285° (WNW) 732 1.8 -9.9°
Maximum altitude 06:18:18 39° 349° (NNW) 405 1.0 -9.6°
Drops below altitude 10° 06:20:34 10° 62° (ENE) 1,059 4.1 -9.2°
Sets 06:22:32 0° 70° (ENE) 1,875 5.7 -8.8°
